CAPE
3 2 2 3 5 4 4 4 4 3 4 4 4 3 3 4 4 3 5 5 5 4 4 2 3 5 4 3 0 0 0 0 0 0 0 0 0 0 69 183 28 726 3236 384 150 880 934 755 767 606 315 293 265 380 396 654 695 794 306 371 603 692 777 857 704 710 721 835 833 904 908 1015 1163 1212 1131 2209 1812 1777 1614 1478 1318 1320 1418 1086 942 1272 1394 1318
3 3 4 4 3 3 3 4 5 4 4 4 5 3 4 3 3 2 4 4 6 5 4 2 4 5 4 1 0 0 0 0 0 0 0 0 0 0 0 0 217 1735 1341 0 0 0 0 10 430 396 306 299 346 502 440 506 662 473 250 384 449 580 880 998 853 777 782 733 659 712 864 996 1077 1117 849 1522 1344 1425 1313 1258 1266 1308 1226 1009 1040 1434 1617 1190
3 4 4 4 4 4 4 3 4 5 4 4 5 5 4 3 2 3 4 4 5 5 4 2 4 5 2 0 0 0 0 0 0 0 0 0 0 0 53 305 1024 2384 0 0 0 0 0 0 48 92 132 242 352 468 438 306 347 247 428 516 631 736 1026 900 820 808 732 711 715 701 797 789 612 1113 1225 1106 1300 1130 922 935 1025 1237 1066 1086 998 1286 970 1232
1 2 2 3 3 4 3 4 4 4 4 3 5 4 4 3 4 5 5 5 4 4 4 4 5 4 2 0 0 0 0 0 0 0 0 384 176 0 40 400 1721 1898 0 0 0 0 0 0 0 0 0 88 244 248 458 291 283 336 555 659 776 949 1085 1096 1095 1038 948 909 904 1033 1132 1137 1134 1050 1206 1081 1034 974 845 892 1173 1149 1109 1017 1098 1057 1152 926
1 1 0 0 1 1 1 2 2 4 4 5 4 5 3 3 4 4 5 4 4 3 3 4 4 3 1 0 0 0 0 0 0 0 62 580 748 292 86 696 2228 876 0 0 0 0 0 0 0 0 15 275 190 0 305 192 234 383 518 749 969 1042 1101 1090 1152 1084 1012 1090 1118 1143 1036 1099 1268 1394 1536 1126 1031 1007 1084 833 1226 1644 939 854 899 988 981 926
0 0 1 1 1 1 2 2 3 3 4 4 3 3 4 4 4 5 5 4 3 4 4 4 3 1 0 0 0 0 0 0 0 0 2203 815 1328 856 516 826 2641 155 0 0 0 0 0 0 0 73 144 144 169 146 174 431 512 572 572 696 776 917 1127 1208 1189 1060 1115 1020 838 892 1000 1226 1243 1228 1246 1283 1309 1320 1276 1327 1499 1894 1482 873 951 885 1042 1151
0 0 0 0 0 1 1 2 2 2 3 4 3 3 4 4 5 5 3 4 3 5 3 3 1 0 0 0 0 0 0 0 0 0 783 1728 1241 916 1032 1598 1759 0 0 0 0 0 0 0 2 26 59 43 3 251 344 423 551 614 626 759 992 1179 1327 1343 1297 1278 1056 725 782 860 1094 1086 1022 1054 1214 1274 1348 1674 1266 1337 1522 1500 1124 965 834 960 1054 981
0 0 0 0 0 0 0 1 1 2 2 3 4 4 4 6 4 4 2 4 5 4 2 0 0 0 0 0 0 0 0 0 0 369 1673 1814 1603 1970 1396 820 42 0 0 0 0 0 0 0 1 14 2 0 0 332 404 546 656 699 852 1141 1333 1412 1448 1412 1298 955 733 702 829 898 881 904 896 1028 1302 1218 1281 1440 1698 1560 1728 1413 1354 1124 697 604 877 1337
0 0 0 0 0 0 0 0 1 2 3 4 4 4 4 4 3 3 4 4 3 2 0 0 0 0 1 0 0 0 0 0 0 390 1142 362 722 201 0 0 0 0 0 0 0 0 0 2 9 0 0 0 52 389 474 507 582 715 1008 1234 1279 1354 1392 1278 1138 1016 841 776 687 710 800 909 980 1045 1126 1071 1044 1203 1044 1702 1736 1894 1441 1274 1235 1092 943 1015
1 0 0 0 0 0 0 1 0 1 4 4 5 4 3 3 3 2 4 3 2 1 0 1 0 0 0 0 0 0 0 1 85 370 22 16 70 2 0 0 0 0 0 0 0 0 0 0 4 0 0 0 0 302 378 242 446 847 1202 1238 1259 1350 1308 1241 1227 1046 910 704 694 797 829 784 805 800 858 909 986 1028 1248 1202 1402 1523 1480 1360 1352 1244 1360 1047
0 0 0 0 0 0 0 1 1 1 3 7 3 3 3 3 3 2 1 1 0 0 0 0 1 0 0 0 0 0 0 0 0 0 0 0 0 0 0 0 0 0 0 0 0 0 0 0 0 0 0 0 0 0 1 285 706 1092 1258 1169 1160 1233 1215 1246 1200 1081 851 818 838 875 916 972 982 910 734 864 1031 1253 1773 1137 1320 1545 1685 1667 1697 1602 1407 1428
0 0 0 0 0 0 0 1 1 0 2 4 3 3 4 2 2 2 0 0 0 0 0 0 0 0 0 0 0 0 0 0 0 0 0 0 0 0 0 0 0 0 0 0 0 0 0 0 0 0 0 0 0 0 449 646 1080 1249 1204 1200 1179 1074 1016 1013 1098 1064 1021 1006 1002 926 760 794 927 1173 1044 1001 1136 1104 1166 1210 1216 1490 1640 1760 1738 1656 1602 1606
0 0 0 0 0 0 0 0 0 1 2 3 3 3 2 2 2 1 1 0 0 0 0 0 0 0 0 0 0 0 0 0 0 0 0 0 0 0 0 0 0 0 0 0 0 0 0 0 0 0 0 0 0 0 453 725 1079 1090 1078 1109 1034 972 922 1056 1270 1124 1124 1001 1076 991 444 596 886 929 1065 1058 919 1098 1058 970 1243 1330 1633 1732 1635 1505 1456 1357
0 0 0 0 0 0 0 0 0 1 2 2 2 2 1 1 0 0 0 0 0 0 0 0 0 0 0 0 0 0 0 0 0 0 0 0 0 0 0 0 0 0 0 0 0 0 0 0 0 0 0 0 0 0 114 620 780 956 1031 1007 950 1081 1088 1227 1264 1212 1157 1452 1396 1123 506 650 862 701 987 1043 929 1179 1037 919 1178 1294 1614 1660 1523 1374 1356 1349
0 0 0 0 0 0 0 1 0 1 3 3 2 2 0 0 0 0 0 0 0 0 0 0 0 0 0 0 0 0 224 0 0 0 0 0 0 0 0 0 0 0 0 0 0 0 0 0 0 0 0 0 0 0 0 476 766 870 821 850 1081 1132 1212 1197 1298 1021 1026 1067 1420 916 826 764 818 740 1105 1113 989 1241 994 1081 1362 1417 1427 1660 1695 1651 1506 1490
0 0 0 0 0 0 0 0 1 1 4 3 2 0 0 0 0 0 0 0 0 0 0 0 0 0 0 0 0 0 0 0 0 0 0 0 0 0 0 0 0 0 0 0 0 0 0 0 0 0 0 0 0 0 0 490 626 612 604 848 1018 1011 1072 1028 1203 1166 1006 1035 1538 1042 969 985 962 893 1068 1163 1154 1163 1183 1300 1484 1469 1622 1744 1823 1778 1869 1870
0 0 0 0 0 0 0 0 2 3 2 2 1 0 0 0 0 0 0 0 0 0 0 0 0 0 0 0 0 0 0 0 0 0 0 0 0 0 0 0 0 0 0 0 0 0 0 0 0 0 0 0 0 0 0 0 312 530 488 806 1002 1027 1086 882 961 1320 1338 976 997 1046 1058 1078 1092 1080 1076 1093 1499 1318 1136 1363 1652 1532 1526 1666 1809 1792 1966 1935
0 0 0 0 0 0 0 0 2 3 2 2 2 0 0 0 0 0 0 0 0 0 0 0 0 0 0 0 0 0 0 0 0 0 0 0 0 0 0 0 0 0 0 0 0 0 0 0 0 0 0 0 0 0 0 0 0 385 726 872 942 950 751 741 1156 1299 1128 952 748 765 982 1032 1262 1216 1158 1408 1558 1145 1203 1355 1822 1765 1676 1805 1970 1828 1775 1736
0 0 0 0 0 0 0 0 3 3 3 2 0 0 0 0 0 0 0 0 0 0 0 0 0 0 0 0 0 0 0 0 0 0 0 0 0 0 0 0 0 0 0 0 0 0 0 0 0 0 0 0 0 0 0 0 0 174 747 840 762 835 826 949 1151 1284 814 722 690 677 827 1093 1216 1266 1166 991 791 1019 1084 1149 1730 1780 1842 1918 1770 1792 1794 1870
0 0 0 0 0 0 0 0 0 2 3 2 0 0 0 0 0 0 0 0 0 0 0 0 0 0 0 0 0 0 0 0 0 0 0 0 0 0 0 0 0 0 0 0 0 0 0 0 0 0 0 0 0 0 0 0 0 155 612 712 717 748 825 747 850 1199 800 751 751 851 918 1071 1183 1187 1061 817 835 932 993 1336 1558 1817 1825 1637 1643 1641 1906 2040
0 0 0 0 0 0 0 0 0 1 3 2 1 0 0 3 0 0 0 0 0 0 0 0 0 0 0 0 0 0 0 0 0 0 0 0 0 0 0 0 0 0 0 0 0 0 0 0 0 0 0 0 0 2 0 0 0 548 600 613 667 608 610 571 832 985 840 790 790 958 1026 1136 1179 1058 906 772 832 770 1148 1258 1586 1670 1598 1827 1906 1962 1928 1973
0 0 0 0 0 0 0 0 0 0 2 2 0 0 0 0 0 0 0 0 0 0 0 0 0 0 0 0 0 0 0 0 0 0 0 0 0 0 0 0 0 0 0 0 0 0 0 0 0 0 0 0 0 0 0 0 0 421 578 543 424 516 572 657 762 845 900 756 912 903 763 900 893 897 823 725 864 951 1098 1254 1244 1490 1826 1908 2088 2262 2151 2222
0 0 0 0 0 0 0 0 0 0 1 0 0 0 0 0 0 0 0 0 0 0 0 0 0 0 0 0 0 0 0 0 0 0 0 0 0 0 0 0 0 0 0 0 0 0 0 0 0 0 0 0 0 0 0 0 0 316 383 303 404 658 642 674 706 762 819 711 805 827 429 444 668 591 804 788 997 1207 1245 1081 1367 1828 1927 1947 2202 2215 2087 1998
0 0 0 0 0 0 0 0 1 1 0 0 0 0 0 0 0 0 0 0 0 0 0 0 0 0 0 0 0 0 0 0 0 0 0 0 0 0 0 0 0 0 0 0 0 0 0 0 0 0 0 0 0 0 0 0 0 144 202 340 614 642 682 654 751 888 823 773 854 657 367 391 652 483 497 625 986 1098 1378 1187 1593 1800 2017 2242 1868 1916 1724 1669
0 0 0 0 0 0 0 0 0 0 0 0 0 0 0 0 0 0 0 0 0 0 0 0 0 0 0 0 0 0 0 0 0 0 0 0 0 0 0 0 0 0 0 0 0 0 0 0 0 0 0 0 0 0 0 0 0 118 252 442 574 672 676 718 777 803 808 746 811 524 244 284 600 772 641 998 1058 1090 1276 1363 1772 1856 1897 1761 1714 1985 2071 1932
0 0 0 0 0 0 0 0 0 0 0 0 0 0 0 0 0 0 0 0 0 0 0 0 0 0 0 0 0 0 0 0 0 0 0 0 0 0 0 0 0 0 0 0 0 0 0 0 0 0 0 0 0 0 0 0 0 98 404 466 564 591 690 780 774 702 554 406 558 566 240 312 710 814 779 885 1131 1213 1292 1327 1664 1676 1560 1597 1912 1793 2047 1973
0 0 0 0 0 0 0 0 0 0 0 0 0 0 0 0 0 0 0 0 0 0 0 0 0 0 0 0 0 0 0 0 0 0 0 0 0 0 0 0 0 0 0 0 0 0 0 0 0 0 0 0 0 0 0 0 0 0 301 489 578 618 730 756 704 490 365 751 515 642 251 263 624 697 821 737 1106 1329 1356 1518 1542 1730 1574 1682 1746 1886 2064 2027
0 0 0 0 0 0 0 0 0 0 0 0 0 0 0 0 0 0 0 0 64 0 0 0 0 0 0 0 0 0 0 0 0 0 0 0 0 0 0 0 0 0 0 0 0 0 0 0 0 0 0 0 0 0 0 0 0 35 378 575 598 673 716 749 574 489 562 440 472 523 553 133 581 664 664 875 1189 1238 1439 1544 1303 1084 1178 1471 1372 1899 2056 2048
0 0 0 0 0 0 0 0 0 0 0 0 0 0 0 0 0 0 0 10 32 0 0 0 0 0 0 0 0 0 0 0 0 0 0 0 0 0 0 0 0 0 0 0 0 0 0 0 0 0 0 0 0 0 0 0 0 461 615 576 578 688 729 664 539 440 376 190 166 326 501 147 694 744 875 1015 776 1281 1440 1478 1274 884 1023 1226 1202 1628 1751 1669
0 0 0 0 0 0 0 2 0 0 0 0 0 0 0 0 0 0 0 0 0 0 0 0 0 0 0 0 0 0 0 0 0 0 0 0 0 0 0 0 0 0 0 0 0 0 0 0 0 0 0 0 0 0 0 0 261 488 478 532 459 707 678 490 428 380 290 0 0 223 395 146 147 672 802 879 382 595 1305 1426 1038 782 989 1174 1028 1444 1698 1512
0 0 0 0 0 0 0 0 0 0 0 0 0 0 0 0 0 0 0 0 0 0 0 0 0 0 0 0 0 0 0 0 0 0 0 0 0 0 0 0 0 0 0 0 0 0 0 0 0 0 0 0 0 0 0 130 368 371 295 379 389 474 521 392 199 234 4 0 67 123 172 18 2 204 636 671 510 512 1003 1360 968 801 900 1008 927 1331 1545 1189
0 0 0 0 0 0 0 0 0 0 0 0 0 0 0 0 0 0 0 0 0 0 0 0 0 0 0 0 0 0 0 0 0 0 0 0 0 0 0 0 0 0 0 0 0 0 0 0 0 0 0 0 0 0 0 75 319 254 314 314 240 178 130 63 41 30 10 92 284 92 74 15 4 25 411 527 498 505 883 1178 986 771 837 892 1090 1269 1225 1022
0 0 0 0 0 0 0 0 0 0 0 0 0 0 0 0 0 0 0 0 0 0 0 0 0 0 0 0 0 0 0 0 0 0 0 0 0 0 0 0 0 0 0 0 0 0 0 0 0 0 0 0 0 0 0 0 0 206 158 164 157 126 120 104 92 138 336 320 372 114 319 201 445 290 629 429 552 562 840 1160 1071 798 916 1020 1218 1133 1010 942
0 0 0 0 0 0 0 0 0 0 0 0 0 0 0 0 0 626 0 0 0 0 0 0 0 0 0 0 0 0 0 0 0 0 0 0 0 0 0 0 0 0 0 0 0 0 0 0 0 0 0 0 0 0 0 0 0 155 0 54 47 113 46 7 51 31 42 186 270 274 20 4 42 6 1116 482 570 768 793 745 772 905 1056 1108 1114 930 834 770
0 0 0 0 0 0 0 0 0 0 0 0 0 0 0 0 0 0 0 0 0 0 0 0 0 0 0 0 0 0 0 0 0 0 0 0 0 0 0 0 0 0 0 0 0 0 0 0 0 0 0 0 0 0 0 0 0 0 0 0 0 28 1 0 38 204 100 100 145 360 416 612 388 874 891 743 928 815 727 908 1010 1059 1164 1084 988 885 718 417
0 0 0 0 0 0 0 0 0 0 0 0 0 0 0 0 0 0 78 15 5 0 0 0 0 0 0 0 0 0 0 0 0 0 0 0 0 0 0 0 0 0 0 0 0 0 0 0 0 0 0 0 0 0 0 0 0 0 0 0 0 0 64 92 289 278 282 296 580 881 480 381 574 472 620 599 597 656 742 1084 1164 1198 1174 1098 869 662 511 370
0 0 0 0 0 0 0 0 0 0 0 0 0 0 0 0 0 42 138 67 5 3 0 0 0 0 0 0 0 0 0 0 0 0 0 0 0 0 0 0 0 0 0 0 0 0 0 0 0 0 0 0 0 0 0 0 0 0 0 0 0 0 127 157 102 141 260 78 199 355 447 207 110 1 476 606 640 685 740 996 1198 1182 1136 1078 899 731 559 38
0 0 0 195 0 0 0 0 0 0 0 0 0 322 130 0 84 141 68 78 114 0 0 0 0 0 0 0 0 0 0 0 0 0 0 0 0 0 0 0 0 0 0 0 0 0 0 0 0 0 0 0 0 0 0 0 0 0 0 0 7 2 26 0 0 2 4 12 203 95 405 594 275 180 446 692 633 697 669 636 967 1080 941 800 785 696 424 345
0 0 82 13 326 0 0 0 0 0 0 0 0 1 0 144 104 137 74 154 64 8 4 2 19 9 0 0 0 0 0 0 0 0 0 0 0 0 0 0 0 0 0 0 0 0 0 0 0 0 0 0 0 0 0 2 0 0 0 6 1 0 0 1 0 0 0 4 43 0 234 330 480 167 402 658 615 623 605 546 577 918 845 591 414 339 222 19
0 0 38 0 384 352 97 0 0 0 0 0 0 0 10 168 110 118 106 91 61 43 46 0 0 1 1 11 0 0 0 0 0 0 0 0 0 0 0 0 0 0 0 0 0 0 0 0 0 0 0 0 0 0 0 0 0 2 0 0 1 2 0 0 0 3 6 0 0 5 254 194 0 166 459 524 681 667 626 583 596 571 689 551 456 401 220 19
0 0 64 0 22 21 0 0 0 0 0 0 0 0 39 141 122 132 148 114 94 6 30 0 0 1 6 2 0 0 0 0 0 0 0 0 0 0 0 0 0 0 0 0 0 0 0 0 0 0 0 4 0 0 0 0 0 0 0 0 45 10 3 6 6 1 5 0 8 3 53 0 0 245 484 485 653 714 664 653 652 616 574 538 480 407 358 230
0 219 0 0 0 0 0 0 0 0 0 0 0 0 76 78 67 72 76 25 14 20 10 8 0 4 14 0 6 0 0 0 0 0 0 0 0 0 0 0 0 0 0 0 0 0 0 0 0 0 0 0 0 0 19 7 0 13 1 1 0 0 4 1 0 8 98 79 16 0 0 0 512 611 414 473 603 701 706 698 667 631 616 594 534 487 429 350
0 0 0 0 0 0 0 0 0 0 0 0 0 10 5 11 1 32 30 29 43 37 16 12 0 0 9 18 20 4 4 4 0 0 0 0 0 0 0 0 0 0 0 0 0 0 36 0 0 0 0 0 0 58 112 40 23 115 16 0 0 5 12 0 0 0 4 107 64 67 54 0 628 762 760 594 612 682 732 684 634 649 651 634 636 618 502 436
0 0 0 0 0 0 0 0 0 0 0 130 157 289 182 210 282 280 159 75 10 22 12 4 6 8 12 34 5 4 7 0 0 0 0 0 0 0 0 0 0 0 0 0 0 0 0 0 1 2 2 1 0 2 110 54 82 21 94 0 0 114 28 19 95 0 49 14 6 6 0 0 557 741 720 667 662 694 718 710 679 694 701 765 766 693 614 586
0 0 0 1 10 16 0 367 4 23 139 320 259 350 170 218 280 240 205 54 19 41 21 56 12 23 14 18 116 0 9 16 12 0 0 0 1 0 0 0 0 0 0 0 39 0 0 0 10 1 0 8 4 80 10 23 36 57 18 4 12 146 26 13 25 1 2 80 84 0 0 522 632 640 740 710 715 720 834 788 776 826 847 868 844 784 722 691
0 11 0 1 0 337 305 340 181 210 385 410 353 323 191 286 311 237 156 268 31 42 17 68 44 59 39 90 72 64 10 8 5 5 0 0 0 0 0 0 0 0 148 608 731 0 0 0 4 12 12 10 93 21 90 10 19 26 20 101 22 152 157 48 16 43 0 20 90 0 100 694 475 477 656 724 658 700 816 871 883 860 869 845 837 793 739 682
0 0 0 0 0 2 11 170 358 435 454 507 488 264 313 289 269 414 278 257 115 24 24 36 92 94 107 91 54 60 12 14 24 1 0 1 4 0 0 0 14 1502 1730 1152 387 0 0 0 5 7 3 0 52 46 46 90 30 19 6 33 84 100 139 58 0 9 24 0 1 364 538 471 470 443 495 683 685 616 699 866 934 878 800 794 762 746 735 703
0 0 0 0 0 0 0 7 442 578 488 651 516 347 332 338 421 412 326 251 274 14 9 64 160 89 92 68 43 14 5 98 7 7 2 2 2 0 1 178 670 2708 484 48 235 0 0 0 0 40 115 118 154 108 33 10 12 16 17 24 13 27 154 65 98 55 10 0 0 300 537 178 356 434 462 582 673 678 567 572 712 805 752 726 736 743 721 629
0 0 0 0 0 0 0 153 535 600 440 446 726 479 388 402 358 308 329 364 252 41 11 306 206 150 90 89 34 65 21 106 29 59 87 23 8 23 0 178 107 182 0 0 0 0 0 0 0 110 142 136 130 117 102 44 24 8 32 1 0 24 49 34 163 143 10 12 0 464 528 84 251 400 435 467 494 520 523 528 400 554 667 723 752 711 632 558
0 0 0 0 0 0 0 286 539 559 164 540 409 392 393 390 365 272 290 370 342 55 74 14 144 122 92 69 16 26 7 44 44 77 91 31 17 14 12 4 10 40 2 15 6 0 0 72 328 141 126 115 106 92 66 0 29 198 90 190 24 55 2 6 94 284 319 194 308 540 418 275 48 10 399 456 426 501 470 420 484 505 566 710 724 630 580 563
0 0 0 0 0 0 410 470 295 336 98 462 377 486 403 402 319 268 344 428 308 19 34 23 237 12 75 30 28 10 17 38 49 45 53 15 33 14 26 6 0 0 2 16 1 0 0 0 18 166 151 97 55 19 0 0 119 192 208 44 60 39 24 5 54 0 237 281 546 488 362 261 198 99 358 405 489 510 483 510 542 584 628 670 629 546 546 526
0 0 0 0 0 50 76 462 502 44 178 336 299 571 313 222 157 289 338 472 312 369 28 38 14 10 42 22 30 23 24 27 60 57 38 14 13 7 0 3 0 1 0 0 0 0 0 0 7 61 184 174 64 9 0 0 8 199 277 190 72 2 1 0 0 57 327 406 467 475 409 319 168 330 362 364 462 444 440 512 572 629 648 602 544 486 472 386
Wind_Speed
nan nan nan nan nan nan nan nan nan nan nan nan nan nan nan nan nan nan nan nan nan nan nan nan nan nan nan nan nan nan nan nan nan nan nan nan nan nan nan 10 nan 20 14 5 10 8 17 24 29 24 17 11 11 16 22 27 27 28 29 29 23 25 20 22 24 23 18 17 16 12 12 11 8 5 1 2 6 6 7 11 9 15 13 11 13 9 7 12
nan nan nan nan nan nan nan nan nan nan nan nan nan nan nan nan nan nan nan nan nan nan nan nan nan nan nan nan nan nan nan nan nan nan nan nan nan nan nan nan 11 15 14 nan nan nan nan nan 28 14 8 6 6 17 21 23 30 27 30 25 25 23 22 22 24 22 20 19 17 13 11 11 10 7 3 2 3 7 10 11 8 13 9 6 8 11 13 11
nan nan nan nan nan nan nan nan nan nan nan nan nan nan nan nan nan nan nan nan nan nan nan nan nan nan nan nan nan nan nan nan nan nan nan nan nan nan nan 14 9 19 nan nan nan nan nan nan nan nan 4 6 9 22 28 24 25 27 27 25 18 20 21 23 26 25 21 23 18 14 11 9 9 7 4 4 4 7 7 7 4 8 8 7 6 8 9 5
nan nan nan nan nan nan nan nan nan nan nan nan nan nan nan nan nan nan nan nan nan nan nan nan nan nan nan nan nan nan nan nan nan nan nan 3 16 nan nan 15 9 14 nan nan nan nan nan nan nan nan nan nan 18 21 24 27 22 26 21 25 22 22 21 22 26 26 26 24 23 16 12 8 6 6 5 6 6 4 3 3 6 6 9 6 6 7 3 6
nan nan nan nan nan nan nan nan nan nan nan nan nan nan nan nan nan nan nan nan nan nan nan nan nan nan nan nan nan nan nan nan nan nan nan 3 11 17 nan 11 9 7 nan nan nan nan nan nan nan nan nan 11 17 nan 27 24 21 21 20 24 24 20 20 26 28 30 30 26 22 17 10 11 11 4 2 4 7 4 5 4 4 5 9 10 7 4 5 10
nan nan nan nan nan nan nan nan nan nan nan nan nan nan nan nan nan nan nan nan nan nan nan nan nan nan nan nan nan nan nan nan nan nan 10 7 6 12 12 8 10 5 nan nan nan nan nan nan nan nan 4 7 14 19 17 17 21 18 18 19 18 22 24 25 29 31 30 30 28 21 14 12 10 8 6 4 3 2 5 6 6 6 10 13 10 1 6 10
nan nan nan nan nan nan nan nan nan nan nan nan nan nan nan nan nan nan nan nan nan nan nan nan nan nan nan nan nan nan nan nan nan nan 13 11 9 10 8 5 10 nan nan nan nan nan nan nan nan nan nan nan nan 14 12 6 11 22 18 17 17 21 23 27 30 33 33 34 31 25 17 12 13 8 9 5 6 2 7 5 3 10 13 16 12 2 4 8
nan nan nan nan nan nan nan nan nan nan nan nan nan nan nan nan nan nan nan nan nan nan nan nan nan nan nan nan nan nan nan nan nan 6 9 13 11 11 10 7 nan nan nan nan nan nan nan nan nan nan nan nan nan 7 5 7 9 16 16 18 15 15 21 26 30 31 31 29 29 27 20 15 14 14 9 6 5 4 5 7 6 10 12 14 15 8 6 7
nan nan nan nan nan nan nan nan nan nan nan nan nan nan nan nan nan nan nan nan nan nan nan nan nan nan nan nan nan nan nan nan nan 8 10 11 9 10 nan nan nan nan nan nan nan nan nan nan nan nan nan nan nan 6 10 7 13 14 20 19 15 17 21 25 28 31 32 30 30 26 22 20 19 15 8 8 6 6 6 7 9 9 11 11 12 11 10 7
nan nan nan nan nan nan nan nan nan nan nan nan nan nan nan nan nan nan nan nan nan nan nan nan nan nan nan nan nan nan nan nan nan 10 nan nan nan nan nan nan nan nan nan nan nan nan nan nan nan nan nan nan nan 11 18 18 12 11 19 19 21 23 22 25 31 33 32 31 33 28 23 21 17 12 10 8 8 5 5 5 7 7 8 6 7 7 7 10
nan nan nan nan nan nan nan nan nan nan nan nan nan nan nan nan nan nan nan nan nan nan nan nan nan nan nan nan nan nan nan nan nan nan nan nan nan nan nan nan nan nan nan nan nan nan nan nan nan nan nan nan nan nan nan 15 8 11 19 21 19 19 18 23 28 31 30 28 31 27 22 19 14 11 12 7 5 3 3 6 6 6 5 5 4 4 4 5
nan nan nan nan nan nan nan nan nan nan nan nan nan nan nan nan nan nan nan nan nan nan nan nan nan nan nan nan nan nan nan nan nan nan nan nan nan nan nan nan nan nan nan nan nan nan nan nan nan nan nan nan nan nan 15 3 7 13 23 20 18 21 21 23 28 30 28 27 33 31 19 13 11 14 11 7 4 2 4 6 6 7 6 7 6 4 3 2
nan nan nan nan nan nan nan nan nan nan nan nan nan nan nan nan nan nan nan nan nan nan nan nan nan nan nan nan nan nan nan nan nan nan nan nan nan nan nan nan nan nan nan nan nan nan nan nan nan nan nan nan nan nan 14 2 4 10 13 20 17 17 21 23 20 25 29 28 34 28 21 17 14 12 10 8 4 3 5 4 6 7 8 8 7 6 4 1
nan nan nan nan nan nan nan nan nan nan nan nan nan nan nan nan nan nan nan nan nan nan nan nan nan nan nan nan nan nan nan nan nan nan nan nan nan nan nan nan nan nan nan nan nan nan nan nan nan nan nan nan nan nan 12 10 6 13 17 11 18 21 22 24 23 28 30 23 30 27 29 22 15 12 13 11 9 5 7 4 6 8 9 10 9 8 8 6
nan nan nan nan nan nan nan nan nan nan nan nan nan nan nan nan nan nan nan nan nan nan nan nan nan nan nan nan nan nan 4 nan nan nan nan nan nan nan nan nan nan nan nan nan nan nan nan nan nan nan nan nan nan nan nan 2 9 19 17 14 14 16 22 23 22 33 31 22 30 29 24 22 16 15 14 14 11 6 5 5 6 7 10 11 11 11 10 10
nan nan nan nan nan nan nan nan nan nan nan nan nan nan nan nan nan nan nan nan nan nan nan nan nan nan nan nan nan nan nan nan nan nan nan nan nan nan nan nan nan nan nan nan nan nan nan nan nan nan nan nan nan nan nan 3 10 18 14 18 18 15 23 17 21 32 28 27 30 33 24 15 10 15 12 12 12 7 5 6 6 8 10 11 12 12 12 11
nan nan nan nan nan nan nan nan nan nan nan nan nan nan nan nan nan nan nan nan nan nan nan nan nan nan nan nan nan nan nan nan nan nan nan nan nan nan nan nan nan nan nan nan nan nan nan nan nan nan nan nan nan nan nan nan 17 20 11 15 17 21 21 16 19 26 27 28 30 30 23 19 14 15 12 10 11 9 6 7 7 8 11 12 11 12 12 13
nan nan nan nan nan nan nan nan nan nan nan nan nan nan nan nan nan nan nan nan nan nan nan nan nan nan nan nan nan nan nan nan nan nan nan nan nan nan nan nan nan nan nan nan nan nan nan nan nan nan nan nan nan nan nan nan nan 18 10 11 10 14 26 25 29 29 29 26 33 27 24 23 18 15 10 8 8 11 8 8 7 8 10 11 11 12 12 14
nan nan nan nan nan nan nan nan nan nan nan nan nan nan nan nan nan nan nan nan nan nan nan nan nan nan nan nan nan nan nan nan nan nan nan nan nan nan nan nan nan nan nan nan nan nan nan nan nan nan nan nan nan nan nan nan nan 17 17 16 14 20 22 24 24 26 29 30 28 27 31 28 18 11 10 7 3 6 6 5 6 7 8 10 11 10 12 14
nan nan nan nan nan nan nan nan nan nan nan nan nan nan nan nan nan nan nan nan nan nan nan nan nan nan nan nan nan nan nan nan nan nan nan nan nan nan nan nan nan nan nan nan nan nan nan nan nan nan nan nan nan nan nan nan nan 17 15 18 18 22 23 22 22 26 27 27 24 21 23 23 15 9 7 6 4 4 1 3 4 5 7 10 10 11 13 14
nan nan nan nan nan nan nan nan nan nan nan nan nan nan nan nan nan nan nan nan nan nan nan nan nan nan nan nan nan nan nan nan nan nan nan nan nan nan nan nan nan nan nan nan nan nan nan nan nan nan nan nan nan nan nan nan nan 21 19 21 22 25 28 25 28 29 24 24 21 25 25 19 13 9 0 4 7 3 0 1 2 5 5 8 7 8 11 13
nan nan nan nan nan nan nan nan nan nan nan nan nan nan nan nan nan nan nan nan nan nan nan nan nan nan nan nan nan nan nan nan nan nan nan nan nan nan nan nan nan nan nan nan nan nan nan nan nan nan nan nan nan nan nan nan nan 27 20 15 23 21 26 25 27 25 22 24 23 24 23 16 10 7 1 7 6 4 4 1 1 3 3 5 6 6 9 11
nan nan nan nan nan nan nan nan nan nan nan nan nan nan nan nan nan nan nan nan nan nan nan nan nan nan nan nan nan nan nan nan nan nan nan nan nan nan nan nan nan nan nan nan nan nan nan nan nan nan nan nan nan nan nan nan nan 15 16 17 20 26 30 22 19 22 22 21 25 24 23 14 10 7 3 9 9 7 6 3 2 4 4 5 5 4 5 13
nan nan nan nan nan nan nan nan nan nan nan nan nan nan nan nan nan nan nan nan nan nan nan nan nan nan nan nan nan nan nan nan nan nan nan nan nan nan nan nan nan nan nan nan nan nan nan nan nan nan nan nan nan nan nan nan nan 17 19 15 19 23 20 29 22 22 23 21 27 27 17 12 11 6 7 12 10 8 7 8 7 6 4 3 4 5 0 3
nan nan nan nan nan nan nan nan nan nan nan nan nan nan nan nan nan nan nan nan nan nan nan nan nan nan nan nan nan nan nan nan nan nan nan nan nan nan nan nan nan nan nan nan nan nan nan nan nan nan nan nan nan nan nan nan nan 18 17 25 30 27 20 21 26 25 17 18 17 24 13 10 9 7 6 9 9 7 7 7 5 5 5 2 2 4 4 9
nan nan nan nan nan nan nan nan nan nan nan nan nan nan nan nan nan nan nan nan nan nan nan nan nan nan nan nan nan nan nan nan nan nan nan nan nan nan nan nan nan nan nan nan nan nan nan nan nan nan nan nan nan nan nan nan nan nan 9 19 25 26 28 29 26 22 18 16 12 13 13 12 7 8 5 7 9 6 8 7 7 7 6 4 3 6 8 11
nan nan nan nan nan nan nan nan nan nan nan nan nan nan nan nan nan nan nan nan nan nan nan nan nan nan nan nan nan nan nan nan nan nan nan nan nan nan nan nan nan nan nan nan nan nan nan nan nan nan nan nan nan nan nan nan nan nan 9 18 22 26 30 29 29 24 18 11 10 16 13 17 11 3 9 13 13 10 9 10 17 20 18 11 8 6 7 8
nan nan nan nan nan nan nan nan nan nan nan nan nan nan nan nan nan nan nan nan nan nan nan nan nan nan nan nan nan nan nan nan nan nan nan nan nan nan nan nan nan nan nan nan nan nan nan nan nan nan nan nan nan nan nan nan nan nan 16 21 23 28 30 28 24 21 21 22 18 18 17 15 11 5 17 18 12 10 10 12 13 12 3 15 20 10 6 6
nan nan nan nan nan nan nan nan nan nan nan nan nan nan nan nan nan nan nan nan nan nan nan nan nan nan nan nan nan nan nan nan nan nan nan nan nan nan nan nan nan nan nan nan nan nan nan nan nan nan nan nan nan nan nan nan nan 16 26 22 20 25 28 25 18 21 21 21 24 24 23 17 7 8 15 17 11 6 5 8 10 9 12 11 7 15 8 4
nan nan nan nan nan nan nan nan nan nan nan nan nan nan nan nan nan nan nan nan nan nan nan nan nan nan nan nan nan nan nan nan nan nan nan nan nan nan nan nan nan nan nan nan nan nan nan nan nan nan nan nan nan nan nan nan 24 25 28 26 20 16 18 13 15 18 20 nan nan 27 27 20 10 6 9 17 8 10 8 12 10 7 7 3 8 10 4 1
nan nan nan nan nan nan nan nan nan nan nan nan nan nan nan nan nan nan nan nan nan nan nan nan nan nan nan nan nan nan nan nan nan nan nan nan nan nan nan nan nan nan nan nan nan nan nan nan nan nan nan nan nan nan nan 17 28 28 18 23 24 18 13 12 12 14 nan nan nan 26 28 nan nan 5 7 8 13 11 10 8 5 4 6 5 5 5 5 4
nan nan nan nan nan nan nan nan nan nan nan nan nan nan nan nan nan nan nan nan nan nan nan nan nan nan nan nan nan nan nan nan nan nan nan nan nan nan nan nan nan nan nan nan nan nan nan nan nan nan nan nan nan nan nan nan 11 21 23 24 29 21 21 nan nan nan nan nan 22 nan nan nan nan nan 9 6 5 5 4 6 6 6 6 5 5 8 7 5
nan nan nan nan nan nan nan nan nan nan nan nan nan nan nan nan nan nan nan nan nan nan nan nan nan nan nan nan nan nan nan nan nan nan nan nan nan nan nan nan nan nan nan nan nan nan nan nan nan nan nan nan nan nan nan nan nan 20 22 22 25 24 23 19 nan 16 19 21 18 17 17 14 9 6 9 4 4 4 6 4 4 6 7 6 8 8 8 7
nan nan nan nan nan nan nan nan nan nan nan nan nan nan nan nan nan 10 nan nan nan nan nan nan nan nan nan nan nan nan nan nan nan nan nan nan nan nan nan nan nan nan nan nan nan nan nan nan nan nan nan nan nan nan nan nan nan 13 nan nan nan 19 nan nan nan nan nan 23 17 14 nan nan nan nan 9 2 9 5 7 7 4 5 5 6 9 9 8 7
nan nan nan nan nan nan nan nan nan nan nan nan nan nan nan nan nan nan nan nan nan nan nan nan nan nan nan nan nan nan nan nan nan nan nan nan nan nan nan nan nan nan nan nan nan nan nan nan nan nan nan nan nan nan nan nan nan nan nan nan nan nan nan nan nan 29 nan 23 21 16 17 14 13 13 11 4 5 6 6 7 4 3 1 4 8 10 9 8
nan nan nan nan nan nan nan nan nan nan nan nan nan nan nan nan nan nan nan nan nan nan nan nan nan nan nan nan nan nan nan nan nan nan nan nan nan nan nan nan nan nan nan nan nan nan nan nan nan nan nan nan nan nan nan nan nan nan nan nan nan nan nan nan 22 21 24 26 21 20 13 10 6 9 10 9 5 1 4 5 4 4 3 4 6 10 10 8
nan nan nan nan nan nan nan nan nan nan nan nan nan nan nan nan nan nan 24 nan nan nan nan nan nan nan nan nan nan nan nan nan nan nan nan nan nan nan nan nan nan nan nan nan nan nan nan nan nan nan nan nan nan nan nan nan nan nan nan nan nan nan 24 25 22 20 21 nan 16 17 10 3 7 nan 11 12 10 4 8 8 9 7 7 5 6 10 11 nan
nan nan nan 11 nan nan nan nan nan nan nan nan nan 11 12 nan nan 25 nan nan 28 nan nan nan nan nan nan nan nan nan nan nan nan nan nan nan nan nan nan nan nan nan nan nan nan nan nan nan nan nan nan nan nan nan nan nan nan nan nan nan nan nan nan nan nan nan nan nan 9 nan 5 6 12 12 15 15 14 12 12 11 12 10 9 7 8 11 11 10
nan nan nan nan 21 nan nan nan nan nan nan nan nan nan nan 18 27 29 nan 27 nan nan nan nan nan nan nan nan nan nan nan nan nan nan nan nan nan nan nan nan nan nan nan nan nan nan nan nan nan nan nan nan nan nan nan nan nan nan nan nan nan nan nan nan nan nan nan nan nan nan 6 6 11 14 20 18 15 15 15 14 16 14 10 8 9 12 12 nan
nan nan nan nan 17 17 nan nan nan nan nan nan nan nan nan 26 31 32 30 nan nan nan nan nan nan nan nan nan nan nan nan nan nan nan nan nan nan nan nan nan nan nan nan nan nan nan nan nan nan nan nan nan nan nan nan nan nan nan nan nan nan nan nan nan nan nan nan nan nan nan 9 8 nan 15 16 17 16 15 16 15 14 13 11 10 10 11 12 nan
nan nan nan nan nan nan nan nan nan nan nan nan nan nan nan 24 31 35 38 38 nan nan nan nan nan nan nan nan nan nan nan nan nan nan nan nan nan nan nan nan nan nan nan nan nan nan nan nan nan nan nan nan nan nan nan nan nan nan nan nan nan nan nan nan nan nan nan nan nan nan nan nan nan 13 15 16 15 15 17 17 15 14 11 10 9 10 12 11
nan 19 nan nan nan nan nan nan nan nan nan nan nan nan nan nan nan nan nan nan nan nan nan nan nan nan nan nan nan nan nan nan nan nan nan nan nan nan nan nan nan nan nan nan nan nan nan nan nan nan nan nan nan nan nan nan nan nan nan nan nan nan nan nan nan nan nan nan nan nan nan nan 11 10 13 17 17 16 16 17 16 14 10 8 10 11 11 12
nan nan nan nan nan nan nan nan nan nan nan nan nan nan nan nan nan nan nan nan nan nan nan nan nan nan nan nan nan nan nan nan nan nan nan nan nan nan nan nan nan nan nan nan nan nan nan nan nan nan nan nan nan nan 27 nan nan 14 nan nan nan nan nan nan nan nan nan 21 nan nan nan nan 11 10 14 17 16 16 14 14 15 13 8 8 11 11 11 9
nan nan nan nan nan nan nan nan nan nan nan 28 31 29 31 29 30 35 35 nan nan nan nan nan nan nan nan nan nan nan nan nan nan nan nan nan nan nan nan nan nan nan nan nan nan nan nan nan nan nan nan nan nan nan 28 nan nan nan nan nan nan 26 nan nan nan nan nan nan nan nan nan nan 11 11 14 13 14 16 15 10 13 13 8 8 11 11 11 9
nan nan nan nan nan nan nan 23 nan nan 30 28 30 32 35 32 30 33 31 nan nan nan nan nan nan nan nan nan 45 nan nan nan nan nan nan nan nan nan nan nan nan nan nan nan nan nan nan nan nan nan nan nan nan nan nan nan nan nan nan nan nan 33 nan nan nan nan nan nan nan nan nan 8 7 12 14 13 14 13 9 8 7 12 12 10 11 12 12 12
nan nan nan nan nan 23 24 26 27 29 27 26 29 27 29 32 34 34 31 25 nan nan nan nan nan nan nan nan nan nan nan nan nan nan nan nan nan nan nan nan nan nan 9 13 21 nan nan nan nan nan nan nan nan nan nan nan nan nan nan 18 nan 27 28 nan nan nan nan nan nan nan 19 15 12 10 12 12 12 11 7 4 7 11 11 12 13 14 14 14
nan nan nan nan nan nan nan 24 31 32 29 24 26 27 29 32 31 28 34 24 29 nan nan nan nan nan 42 nan nan nan nan nan nan nan nan nan nan nan nan nan nan 18 17 17 20 nan nan nan nan nan nan nan nan nan nan nan nan nan nan nan nan 28 31 nan nan nan nan nan nan 17 17 19 9 8 9 10 9 8 8 6 7 12 13 16 16 16 17 16
nan nan nan nan nan nan nan nan 31 31 28 27 23 25 28 30 32 31 28 25 27 nan nan nan 40 nan nan nan nan nan nan nan nan nan nan nan nan nan nan 14 17 17 18 nan 21 nan nan nan nan nan 22 22 21 22 nan nan nan nan nan nan nan nan 35 nan nan nan nan nan nan 14 14 9 2 5 5 6 8 9 10 7 8 13 17 19 20 19 18 18
nan nan nan nan nan nan nan 17 22 24 30 27 24 27 27 26 27 29 25 23 26 nan nan 32 42 48 nan nan nan nan nan 33 nan nan nan nan nan nan nan 19 19 18 nan nan nan nan nan nan nan 21 24 23 25 27 26 nan nan nan nan nan nan nan nan nan 33 35 nan nan nan 19 12 nan 4 5 5 4 7 9 8 7 12 17 19 20 21 20 20 20
nan nan nan nan nan nan nan 22 21 25 28 27 28 25 25 25 27 29 26 24 26 nan nan nan 45 50 nan nan nan nan nan nan nan nan nan nan nan nan nan nan nan nan nan nan nan nan nan nan 14 19 25 23 23 nan nan nan nan 33 nan 30 nan nan nan nan nan 35 32 29 21 16 12 1 nan nan 4 7 9 9 12 13 15 18 20 22 22 22 22 22
nan nan nan nan nan nan 23 22 21 21 nan 28 28 24 26 26 26 25 23 23 26 nan nan nan 46 nan nan nan nan nan nan nan nan nan nan nan nan nan nan nan nan nan nan nan nan nan nan nan nan 21 23 nan nan nan nan nan 33 31 25 nan nan nan nan nan nan nan 27 20 18 16 13 5 4 nan 11 13 13 14 16 16 16 17 21 23 25 24 24 23
nan nan nan nan nan nan nan 24 23 nan 23 23 26 24 26 25 24 27 26 24 26 29 nan nan nan nan nan nan nan nan nan nan nan nan nan nan nan nan nan nan nan nan nan nan nan nan nan nan nan nan 24 17 nan nan nan nan nan 30 26 23 nan nan nan nan nan nan 21 21 21 17 9 7 6 11 16 11 15 14 17 17 15 16 18 22 24 24 23 23
Wind_Direction
nan nan nan nan nan nan nan nan nan nan nan nan nan nan nan nan nan nan nan nan nan nan nan nan nan nan nan nan nan nan nan nan nan nan nan nan nan nan nan 30 nan 11 342 355 72 61 80 72 65 49 46 25 51 55 49 38 38 24 25 9 4 356 354 18 12 17 15 18 34 42 37 36 35 78 59 127 243 271 248 241 238 243 255 286 291 281 257 244
nan nan nan nan nan nan nan nan nan nan nan nan nan nan nan nan nan nan nan nan nan nan nan nan nan nan nan nan nan nan nan nan nan nan nan nan nan nan nan nan 47 344 320 nan nan nan nan nan 73 59 64 72 56 69 46 44 27 23 13 353 349 354 5 12 10 5 6 21 19 34 42 34 33 45 69 276 240 266 254 255 258 270 273 279 259 231 215 231
nan nan nan nan nan nan nan nan nan nan nan nan nan nan nan nan nan nan nan nan nan nan nan nan nan nan nan nan nan nan nan nan nan nan nan nan nan nan nan 36 23 326 nan nan nan nan nan nan nan nan 152 102 52 57 48 43 17 16 356 338 338 348 354 2 4 9 16 0 7 16 43 38 48 35 31 294 284 258 279 301 264 291 301 304 281 247 244 238
nan nan nan nan nan nan nan nan nan nan nan nan nan nan nan nan nan nan nan nan nan nan nan nan nan nan nan nan nan nan nan nan nan nan nan 294 20 nan nan 38 359 333 nan nan nan nan nan nan nan nan nan nan 92 47 35 31 17 2 344 332 336 345 346 15 5 9 7 6 5 10 28 26 39 34 4 334 274 263 281 270 308 306 315 305 291 293 267 235
nan nan nan nan nan nan nan nan nan nan nan nan nan nan nan nan nan nan nan nan nan nan nan nan nan nan nan nan nan nan nan nan nan nan nan 178 9 23 nan 28 331 332 nan nan nan nan nan nan nan nan nan 86 81 nan 31 27 13 347 334 333 335 350 352 8 5 6 8 17 7 8 13 24 24 6 349 344 312 328 337 317 1 312 310 298 283 292 242 232
nan nan nan nan nan nan nan nan nan nan nan nan nan nan nan nan nan nan nan nan nan nan nan nan nan nan nan nan nan nan nan nan nan nan 207 184 350 14 25 23 302 314 nan nan nan nan nan nan nan nan 154 82 62 60 40 11 353 326 321 335 354 360 356 11 7 11 7 10 6 6 17 22 8 359 41 349 328 337 339 344 9 298 284 285 273 257 258 263
nan nan nan nan nan nan nan nan nan nan nan nan nan nan nan nan nan nan nan nan nan nan nan nan nan nan nan nan nan nan nan nan nan nan 239 233 274 305 330 317 277 nan nan nan nan nan nan nan nan nan nan nan nan 39 45 7 2 335 345 2 8 11 3 9 13 12 10 359 2 2 12 12 11 340 43 26 61 332 340 8 332 278 280 278 275 204 203 254
nan nan nan nan nan nan nan nan nan nan nan nan nan nan nan nan nan nan nan nan nan nan nan nan nan nan nan nan nan nan nan nan nan 256 263 259 259 274 275 240 nan nan nan nan nan nan nan nan nan nan nan nan nan 82 9 317 10 358 9 20 16 13 2 358 4 3 0 358 354 352 352 12 6 355 3 23 61 108 351 337 305 282 278 284 301 317 253 246
nan nan nan nan nan nan nan nan nan nan nan nan nan nan nan nan nan nan nan nan nan nan nan nan nan nan nan nan nan nan nan nan nan 284 278 273 275 278 nan nan nan nan nan nan nan nan nan nan nan nan nan nan nan 346 64 20 71 47 2 9 10 359 347 351 353 355 354 359 355 341 351 1 357 352 349 23 48 64 90 339 315 296 285 282 287 302 297 278
nan nan nan nan nan nan nan nan nan nan nan nan nan nan nan nan nan nan nan nan nan nan nan nan nan nan nan nan nan nan nan nan nan 290 nan nan nan nan nan nan nan nan nan nan nan nan nan nan nan nan nan nan nan 88 85 110 61 355 342 351 350 353 348 352 350 356 359 357 3 352 357 7 22 7 15 38 36 69 99 28 324 307 301 291 288 292 286 284
nan nan nan nan nan nan nan nan nan nan nan nan nan nan nan nan nan nan nan nan nan nan nan nan nan nan nan nan nan nan nan nan nan nan nan nan nan nan nan nan nan nan nan nan nan nan nan nan nan nan nan nan nan nan nan 105 316 312 319 325 343 357 0 355 347 351 354 1 7 359 356 8 19 3 5 24 20 17 27 348 335 332 333 333 325 308 291 256
nan nan nan nan nan nan nan nan nan nan nan nan nan nan nan nan nan nan nan nan nan nan nan nan nan nan nan nan nan nan nan nan nan nan nan nan nan nan nan nan nan nan nan nan nan nan nan nan nan nan nan nan nan nan 151 153 278 317 328 325 339 351 358 1 346 354 356 4 9 6 347 354 13 359 20 23 13 336 307 334 359 358 16 16 15 358 348 266
nan nan nan nan nan nan nan nan nan nan nan nan nan nan nan nan nan nan nan nan nan nan nan nan nan nan nan nan nan nan nan nan nan nan nan nan nan nan nan nan nan nan nan nan nan nan nan nan nan nan nan nan nan nan 130 191 331 0 36 340 345 354 355 8 358 351 351 13 15 9 1 18 17 12 24 28 28 359 336 4 14 27 34 47 43 37 38 30
nan nan nan nan nan nan nan nan nan nan nan nan nan nan nan nan nan nan nan nan nan nan nan nan nan nan nan nan nan nan nan nan nan nan nan nan nan nan nan nan nan nan nan nan nan nan nan nan nan nan nan nan nan nan 184 152 50 28 37 25 355 347 358 5 356 350 347 7 8 3 355 7 11 13 20 30 34 3 3 25 13 33 49 55 58 58 56 58
nan nan nan nan nan nan nan nan nan nan nan nan nan nan nan nan nan nan nan nan nan nan nan nan nan nan nan nan nan nan 95 nan nan nan nan nan nan nan nan nan nan nan nan nan nan nan nan nan nan nan nan nan nan nan nan 32 68 31 32 37 17 356 355 357 352 345 343 359 353 345 352 1 5 10 8 12 24 16 358 53 35 45 57 63 68 65 64 64
nan nan nan nan nan nan nan nan nan nan nan nan nan nan nan nan nan nan nan nan nan nan nan nan nan nan nan nan nan nan nan nan nan nan nan nan nan nan nan nan nan nan nan nan nan nan nan nan nan nan nan nan nan nan nan 173 76 61 35 17 14 1 345 338 355 352 347 343 351 348 352 352 7 21 19 359 358 3 4 56 42 53 57 63 73 72 69 68
nan nan nan nan nan nan nan nan nan nan nan nan nan nan nan nan nan nan nan nan nan nan nan nan nan nan nan nan nan nan nan nan nan nan nan nan nan nan nan nan nan nan nan nan nan nan nan nan nan nan nan nan nan nan nan nan 27 26 17 5 11 342 336 344 342 350 342 342 341 350 355 18 1 1 21 12 6 349 9 43 44 65 73 69 73 75 74 73
nan nan nan nan nan nan nan nan nan nan nan nan nan nan nan nan nan nan nan nan nan nan nan nan nan nan nan nan nan nan nan nan nan nan nan nan nan nan nan nan nan nan nan nan nan nan nan nan nan nan nan nan nan nan nan nan nan 6 3 349 345 335 337 333 334 341 332 339 337 349 5 7 357 353 357 357 354 336 5 27 32 58 76 81 76 75 79 81
nan nan nan nan nan nan nan nan nan nan nan nan nan nan nan nan nan nan nan nan nan nan nan nan nan nan nan nan nan nan nan nan nan nan nan nan nan nan nan nan nan nan nan nan nan nan nan nan nan nan nan nan nan nan nan nan nan 350 0 4 340 328 331 330 336 325 332 331 330 342 350 351 343 331 328 300 264 316 12 33 27 54 79 87 87 88 86 84
nan nan nan nan nan nan nan nan nan nan nan nan nan nan nan nan nan nan nan nan nan nan nan nan nan nan nan nan nan nan nan nan nan nan nan nan nan nan nan nan nan nan nan nan nan nan nan nan nan nan nan nan nan nan nan nan nan 349 343 350 335 324 324 325 324 331 325 319 327 327 330 331 327 326 319 293 244 227 251 319 22 59 78 92 95 93 90 86
nan nan nan nan nan nan nan nan nan nan nan nan nan nan nan nan nan nan nan nan nan nan nan nan nan nan nan nan nan nan nan nan nan nan nan nan nan nan nan nan nan nan nan nan nan nan nan nan nan nan nan nan nan nan nan nan nan 331 346 334 328 323 321 318 319 322 322 314 320 312 321 325 333 337 5 174 236 233 209 237 351 40 82 94 98 99 96 91
nan nan nan nan nan nan nan nan nan nan nan nan nan nan nan nan nan nan nan nan nan nan nan nan nan nan nan nan nan nan nan nan nan nan nan nan nan nan nan nan nan nan nan nan nan nan nan nan nan nan nan nan nan nan nan nan nan 343 337 317 303 299 297 297 303 298 310 304 317 320 320 320 328 349 155 186 207 183 139 143 57 339 60 92 95 102 109 112
nan nan nan nan nan nan nan nan nan nan nan nan nan nan nan nan nan nan nan nan nan nan nan nan nan nan nan nan nan nan nan nan nan nan nan nan nan nan nan nan nan nan nan nan nan nan nan nan nan nan nan nan nan nan nan nan nan 323 317 321 321 311 305 309 302 296 299 307 326 323 313 323 328 333 219 193 196 178 151 170 260 322 2 49 67 95 141 123
nan nan nan nan nan nan nan nan nan nan nan nan nan nan nan nan nan nan nan nan nan nan nan nan nan nan nan nan nan nan nan nan nan nan nan nan nan nan nan nan nan nan nan nan nan nan nan nan nan nan nan nan nan nan nan nan nan 335 328 322 317 324 331 319 318 297 295 281 303 307 302 311 301 298 223 199 194 186 186 218 213 203 199 164 153 139 199 82
nan nan nan nan nan nan nan nan nan nan nan nan nan nan nan nan nan nan nan nan nan nan nan nan nan nan nan nan nan nan nan nan nan nan nan nan nan nan nan nan nan nan nan nan nan nan nan nan nan nan nan nan nan nan nan nan nan 313 318 328 341 343 310 303 306 309 301 302 316 317 300 309 287 284 236 217 220 204 195 234 226 253 240 210 109 76 72 56
nan nan nan nan nan nan nan nan nan nan nan nan nan nan nan nan nan nan nan nan nan nan nan nan nan nan nan nan nan nan nan nan nan nan nan nan nan nan nan nan nan nan nan nan nan nan nan nan nan nan nan nan nan nan nan nan nan nan 321 332 325 312 312 315 319 314 321 324 345 319 308 308 294 307 298 258 256 226 211 213 208 207 194 161 93 77 58 59
nan nan nan nan nan nan nan nan nan nan nan nan nan nan nan nan nan nan nan nan nan nan nan nan nan nan nan nan nan nan nan nan nan nan nan nan nan nan nan nan nan nan nan nan nan nan nan nan nan nan nan nan nan nan nan nan nan nan 314 318 311 305 310 323 322 315 324 327 309 325 310 309 304 275 232 222 248 246 228 225 213 194 176 156 123 92 66 67
nan nan nan nan nan nan nan nan nan nan nan nan nan nan nan nan nan nan nan nan nan nan nan nan nan nan nan nan nan nan nan nan nan nan nan nan nan nan nan nan nan nan nan nan nan nan nan nan nan nan nan nan nan nan nan nan nan nan 283 299 309 316 321 322 310 304 309 313 330 340 329 306 315 250 226 216 229 243 257 270 293 308 299 149 135 120 103 66
nan nan nan nan nan nan nan nan nan nan nan nan nan nan nan nan nan nan nan nan nan nan nan nan nan nan nan nan nan nan nan nan nan nan nan nan nan nan nan nan nan nan nan nan nan nan nan nan nan nan nan nan nan nan nan nan nan 255 287 301 293 304 312 307 298 303 311 312 330 334 330 314 328 274 234 237 221 261 298 299 299 334 338 339 79 110 109 126
nan nan nan nan nan nan nan nan nan nan nan nan nan nan nan nan nan nan nan nan nan nan nan nan nan nan nan nan nan nan nan nan nan nan nan nan nan nan nan nan nan nan nan nan nan nan nan nan nan nan nan nan nan nan nan nan 261 271 266 263 265 286 300 290 292 304 310 nan nan 324 327 314 338 337 292 280 300 302 268 238 248 177 138 14 10 74 101 95
nan nan nan nan nan nan nan nan nan nan nan nan nan nan nan nan nan nan nan nan nan nan nan nan nan nan nan nan nan nan nan nan nan nan nan nan nan nan nan nan nan nan nan nan nan nan nan nan nan nan nan nan nan nan nan 234 275 277 268 279 286 291 287 307 317 302 nan nan nan 307 316 nan nan 335 302 309 260 287 300 309 323 60 76 49 13 14 349 2
nan nan nan nan nan nan nan nan nan nan nan nan nan nan nan nan nan nan nan nan nan nan nan nan nan nan nan nan nan nan nan nan nan nan nan nan nan nan nan nan nan nan nan nan nan nan nan nan nan nan nan nan nan nan nan nan 231 246 268 280 287 289 281 nan nan nan nan nan 301 nan nan nan nan nan 340 308 314 248 290 298 13 26 38 26 354 341 335 351
nan nan nan nan nan nan nan nan nan nan nan nan nan nan nan nan nan nan nan nan nan nan nan nan nan nan nan nan nan nan nan nan nan nan nan nan nan nan nan nan nan nan nan nan nan nan nan nan nan nan nan nan nan nan nan nan nan 266 278 280 277 278 279 280 nan 290 295 293 292 310 300 294 306 348 348 334 290 321 308 279 358 2 11 356 338 323 329 340
nan nan nan nan nan nan nan nan nan nan nan nan nan nan nan nan nan 197 nan nan nan nan nan nan nan nan nan nan nan nan nan nan nan nan nan nan nan nan nan nan nan nan nan nan nan nan nan nan nan nan nan nan nan nan nan nan nan 238 nan nan nan 281 nan nan nan nan nan 288 287 292 nan nan nan nan 356 186 211 279 290 279 301 21 358 338 316 307 319 327
nan nan nan nan nan nan nan nan nan nan nan nan nan nan nan nan nan nan nan nan nan nan nan nan nan nan nan nan nan nan nan nan nan nan nan nan nan nan nan nan nan nan nan nan nan nan nan nan nan nan nan nan nan nan nan nan nan nan nan nan nan nan nan nan nan 275 nan 279 280 282 295 309 332 339 343 319 223 218 264 284 297 21 322 291 293 307 313 317
nan nan nan nan nan nan nan nan nan nan nan nan nan nan nan nan nan nan nan nan nan nan nan nan nan nan nan nan nan nan nan nan nan nan nan nan nan nan nan nan nan nan nan nan nan nan nan nan nan nan nan nan nan nan nan nan nan nan nan nan nan nan nan nan 247 255 267 267 281 282 269 294 357 333 351 334 317 279 287 301 321 340 296 290 310 304 305 307
nan nan nan nan nan nan nan nan nan nan nan nan nan nan nan nan nan nan 170 nan nan nan nan nan nan nan nan nan nan nan nan nan nan nan nan nan nan nan nan nan nan nan nan nan nan nan nan nan nan nan nan nan nan nan nan nan nan nan nan nan nan nan 264 265 262 259 268 nan 286 273 288 336 355 nan 348 337 346 342 324 314 337 326 287 310 303 299 300 nan
nan nan nan 219 nan nan nan nan nan nan nan nan nan 204 200 nan nan 169 nan nan 170 nan nan nan nan nan nan nan nan nan nan nan nan nan nan nan nan nan nan nan nan nan nan nan nan nan nan nan nan nan nan nan nan nan nan nan nan nan nan nan nan nan nan nan nan nan nan nan 294 nan 325 25 5 10 343 354 354 353 350 334 334 329 307 299 282 283 283 283
nan nan nan nan 241 nan nan nan nan nan nan nan nan nan nan 163 166 166 nan 166 nan nan nan nan nan nan nan nan nan nan nan nan nan nan nan nan nan nan nan nan nan nan nan nan nan nan nan nan nan nan nan nan nan nan nan nan nan nan nan nan nan nan nan nan nan nan nan nan nan nan 294 10 6 6 358 359 359 343 350 336 340 336 304 280 272 281 292 nan
nan nan nan nan 250 250 nan nan nan nan nan nan nan nan nan 166 165 167 168 nan nan nan nan nan nan nan nan nan nan nan nan nan nan nan nan nan nan nan nan nan nan nan nan nan nan nan nan nan nan nan nan nan nan nan nan nan nan nan nan nan nan nan nan nan nan nan nan nan nan nan 315 14 nan 354 344 358 356 349 343 334 325 321 293 283 288 294 297 nan
nan nan nan nan nan nan nan nan nan nan nan nan nan nan nan 173 178 178 174 171 nan nan nan nan nan nan nan nan nan nan nan nan nan nan nan nan nan nan nan nan nan nan nan nan nan nan nan nan nan nan nan nan nan nan nan nan nan nan nan nan nan nan nan nan nan nan nan nan nan nan nan nan nan 336 344 344 350 343 343 322 318 306 297 288 297 305 307 304
nan 227 nan nan nan nan nan nan nan nan nan nan nan nan nan nan nan nan nan nan nan nan nan nan nan nan nan nan nan nan nan nan nan nan nan nan nan nan nan nan nan nan nan nan nan nan nan nan nan nan nan nan nan nan nan nan nan nan nan nan nan nan nan nan nan nan nan nan nan nan nan nan 335 319 329 340 340 343 338 320 311 307 301 306 315 317 318 315
nan nan nan nan nan nan nan nan nan nan nan nan nan nan nan nan nan nan nan nan nan nan nan nan nan nan nan nan nan nan nan nan nan nan nan nan nan nan nan nan nan nan nan nan nan nan nan nan nan nan nan nan nan nan 203 nan nan 212 nan nan nan nan nan nan nan nan nan 268 nan nan nan nan 296 293 317 329 336 328 324 319 314 302 294 322 320 318 321 314
nan nan nan nan nan nan nan nan nan nan nan 204 204 201 197 196 194 195 197 nan nan nan nan nan nan nan nan nan nan nan nan nan nan nan nan nan nan nan nan nan nan nan nan nan nan nan nan nan nan nan nan nan nan nan 199 nan nan nan nan nan nan 256 nan nan nan nan nan nan nan nan nan nan 277 289 304 307 310 318 321 319 318 300 294 316 327 323 320 309
nan nan nan nan nan nan nan 217 nan nan 205 208 206 207 200 200 199 200 196 nan nan nan nan nan nan nan nan nan 170 nan nan nan nan nan nan nan nan nan nan nan nan nan nan nan nan nan nan nan nan nan nan nan nan nan nan nan nan nan nan nan nan 267 nan nan nan nan nan nan nan nan nan 294 289 297 301 300 309 321 323 322 306 303 299 311 317 314 308 295
nan nan nan nan nan 221 224 215 222 214 207 209 214 216 213 204 200 200 200 193 nan nan nan nan nan nan nan nan nan nan nan nan nan nan nan nan nan nan nan nan nan nan 299 251 215 nan nan nan nan nan nan nan nan nan nan nan nan nan nan 232 nan 254 252 nan nan nan nan nan nan nan 287 283 293 319 296 300 306 322 334 331 305 293 285 291 301 295 297 295
nan nan nan nan nan nan nan 218 214 211 205 208 218 220 219 213 206 206 203 198 196 nan nan nan nan nan 178 nan nan nan nan nan nan nan nan nan nan nan nan nan nan 258 275 239 231 nan nan nan nan nan nan nan nan nan nan nan nan nan nan nan nan 245 250 nan nan nan nan nan nan 274 286 288 327 316 301 305 315 322 335 329 294 274 277 280 288 281 278 282
nan nan nan nan nan nan nan nan 208 199 200 207 215 221 220 216 213 213 202 207 192 nan nan nan 185 nan nan nan nan nan nan nan nan nan nan nan nan nan nan 202 228 227 243 nan 223 nan nan nan nan nan 218 233 235 232 nan nan nan nan nan nan nan nan 252 nan nan nan nan nan nan 279 301 300 346 6 8 346 325 336 344 327 303 283 272 271 278 283 288 294
nan nan nan nan nan nan nan 212 197 201 200 201 213 217 217 219 217 218 216 202 200 nan nan 187 179 173 nan nan nan nan nan 177 nan nan nan nan nan nan nan 196 206 219 nan nan nan nan nan nan nan 231 227 230 235 239 239 nan nan nan nan nan nan nan nan nan 258 263 nan nan nan 296 306 nan 22 33 37 4 318 332 341 294 270 279 290 292 291 292 297 302
nan nan nan nan nan nan nan 221 217 212 211 204 212 215 215 216 214 210 214 218 203 nan nan nan 176 172 nan nan nan nan nan nan nan nan nan nan nan nan nan nan nan nan nan nan nan nan nan nan 225 229 225 227 227 nan nan nan nan 246 nan 250 nan nan nan nan nan 255 255 252 262 280 285 325 nan nan 301 282 277 256 268 289 303 301 298 300 300 299 299 300
nan nan nan nan nan nan 222 224 222 226 nan 210 217 212 214 215 215 215 213 216 215 nan nan nan 176 nan nan nan nan nan nan nan nan nan nan nan nan nan nan nan nan nan nan nan nan nan nan nan nan 229 230 nan nan nan nan nan 251 251 250 nan nan nan nan nan nan nan 253 262 276 274 270 263 258 nan 283 287 286 298 304 303 296 299 305 302 301 299 298 299
nan nan nan nan nan nan nan 222 223 nan 223 220 218 214 217 215 213 215 214 215 214 210 nan nan nan nan nan nan nan nan nan nan nan nan nan nan nan nan nan nan nan nan nan nan nan nan nan nan nan nan 236 232 nan nan nan nan nan 240 246 257 nan nan nan nan nan nan 252 277 274 278 314 299 303 304 300 299 302 305 310 313 304 300 306 307 304 303 302 301